User: anonymous   Login
Location: Ottawa
(45.4170°N, 75.7000°W)
Time: 21:51:14
(UTC-04:00)
Language:

Aureole 3 Rocket - Orbit

View from above orbital plane
View from above orbital plane
View from above satellite
View from above satellite

Ground track
Ground track

The orbit data is extracted from the following two-line orbital elements,

1 12849U 81094B   15181.20337930  .00000920  00000-0  84107-4 0  9994
2 12849 082.4920 357.3846 0906924 184.3753 174.9063 13.49254296645064
Epoch (UTC): 30 June 2015 04:52:51
Eccentricity: 0.0906924
inclination: 82.4920°
perigee height: 399 km
apogee height: 1751 km
right ascension of ascending node: 357.3846°
argument of perigee: 184.3753°
revolutions per day: 13.49254296
mean anomaly at epoch: 174.9063°
orbit number at epoch: 64506

The dashed part of the orbit path shows where the satellite is in the earth's shadow,  

DLR